Back to catalog

SL-12 R/B(2)

AliveGEO
NORAD 14548·ROCKET BODY·🇷🇺 Russia

Launched Nov 30, 1983 from Baikonur Cosmodrome

Loading…

TLE

FreshSource: Space-Track

Epoch: Sep 14, 2026, 03:49 UTC

1 14548U 83118F   26257.15903046  .00000041  00000-0  00000-0 0  9998
2 14548   8.3725 310.4893 0047208 345.7391 172.3772  1.00266802138792

Track SL-12 R/B(2) in real time with AllMySat

Download on the App Store